{"data":{"norad_id":62577,"intl_designator":"2025-007C","name":"CENTISPACE-1 S8","alt_names":[],"object_type":"PAYLOAD","status":"ACTIVE","operator":null,"country":"PRC","launch_date":"2025-01-13","launch_site_code":"YSLA","launch_vehicle":null,"mission":null,"orbit_class":"UNKNOWN","rcs_meters":null,"size_class":null,"mass_kg":null,"dimensions":null,"purposes":[],"wikipedia_slug":null,"has_3d_model":false,"image_url":null,"decayed_at":null,"tle_current":{"epoch":"2026-09-22T17:56:52.669248Z","epoch_age_seconds":123229,"freshness":"FRESH","line1":"1 62577U 25007C   26265.74783182 -.00000069  00000+0  67668-4 0  9994","line2":"2 62577  54.9857 310.4274 0012719 319.4398  40.5610 13.80626707 88209","mean_motion":13.80626707,"eccentricity":0.0012719,"inclination_deg":54.9857,"raan_deg":310.4274,"arg_perigee_deg":319.4398,"mean_anomaly_deg":40.561,"bstar":6.7668e-5,"rev_number":8820,"period_min":104.30045954486,"perigee_km":952.32922590363,"apogee_km":971.00021351823,"semimajor_km":7339.8017197109,"source":"CELESTRAK","updated_at":"2026-09-23T09:00:21.489068Z"}}}